CAPE
1073 1187 1333 1395 1381 1288 1231 1230 1332 1724 1967 2057 2120 2129 2143 2088 2186 2259 2242 2168 2223 2367 2405 2358 2333 2324 2380 2549 2599 2681 2788 3099 3298 3321 3284 3399 3508 3521 3466 3255 3081 3137 3073 2968 2751 2629 2530 2346 1989 1895 1880 1845 1979 2030 1686 1718 2221 2364 2100 2002 2138 2559 2103 1919 1929 1919 1804 1630 1656 1823 2183 2306 2413 2532 2859 2955 2917 3052 3327 3414 3389 3318 3219 3185 3240
1397 1280 1334 1498 1588 1526 1452 1369 1355 1526 1784 1958 2083 2145 2144 2234 2280 2334 2375 2381 2314 2254 2271 2354 2339 2295 2250 2394 2533 2617 2698 2814 3040 3223 3285 3300 3319 3372 3388 3324 3155 3038 3134 3218 3053 2815 2708 2501 2078 1866 1881 2173 2622 2616 2057 1531 1372 1531 1505 1770 1946 2036 2132 2106 1948 1815 1792 1724 1712 1727 1733 2351 2579 2654 2557 2753 2846 3127 3284 3210 3103 3042 3074 3106 3152
1921 1842 1730 1572 1616 1728 1741 1658 1535 1517 1603 1720 1932 2065 2125 2118 2171 2253 2333 2384 2361 2344 2370 2382 2375 2320 2278 2282 2384 2504 2684 2749 2863 3044 3158 3253 3243 3183 3240 3271 3204 3063 2976 3034 3081 3029 2858 2524 2220 2168 2391 2606 2767 2751 2380 1812 1481 1434 1455 1484 1568 1678 1765 1933 2009 2008 1875 1836 1764 1730 1800 2199 2411 2272 2282 2674 3034 3208 3214 3086 2949 3025 3170 3359 3472
2008 2067 1959 1840 1703 1685 1752 1784 1764 1648 1588 1628 1679 1804 1932 2046 2094 2119 2162 2194 2175 2156 2272 2419 2459 2386 2309 2280 2281 2365 2572 2752 2812 2964 3122 3218 3223 3053 3110 3212 3248 3238 3167 3163 3121 3024 2898 2705 2566 2555 2674 2775 2776 2750 2503 1913 1492 1452 1568 1696 1564 1470 1558 1566 1768 1741 1695 1690 1725 1744 1765 1692 1917 2232 2581 2968 3166 3186 3022 2858 2855 2965 3137 3257 3384
1936 2137 2135 2073 1932 1800 1750 1780 1800 1773 1672 1622 1649 1664 1696 1732 1780 1818 1894 1984 2009 2010 1977 2020 2072 2173 2272 2256 2232 2230 2325 2561 2736 2867 3037 3146 3151 3058 3055 3141 3249 3298 3278 3251 3275 3161 2985 2762 2681 2635 2647 2669 2704 2683 2625 2146 1535 1574 1680 1832 1960 1856 1575 1431 1479 1581 1589 1583 1651 1771 1832 1868 2146 2580 2966 3021 2883 2799 2739 2710 2828 2964 3098 3226 3274
1629 1992 2210 2266 2216 2117 2055 1968 1895 1873 1851 1774 1728 1718 1715 1693 1672 1625 1611 1638 1645 1674 1721 1582 1706 1933 2086 2179 2161 2149 2139 2205 2437 2614 2769 2924 2998 3010 3076 3126 3149 3181 3170 3107 3100 3115 3064 2892 2716 2715 2712 2703 2698 2638 2556 2448 2149 2113 2200 2134 2123 2166 2145 1884 1533 1500 1593 1686 1778 1886 1919 1946 1987 2128 2334 2606 2667 2628 2586 2739 2893 2939 2989 3065 3043
1177 1373 1872 2109 2261 2322 2289 2231 2168 2073 2005 1948 1880 1856 1864 1886 1861 1772 1708 1712 1739 1666 1511 1400 1358 1611 1734 1911 2072 2119 2123 2122 2191 2377 2543 2630 2683 2796 2937 3025 3019 2978 2923 2883 2857 2845 2837 2794 2705 2671 2672 2662 2667 2662 2616 2551 2507 2494 2457 2386 2319 2270 2261 2147 1884 1732 1700 1785 1921 2003 1998 2026 2009 2022 2048 2237 2595 2771 2859 2896 2726 2684 2756 2743 2758
1156 1272 1411 1443 1588 1811 2074 2220 2186 2055 1959 1979 1970 1932 1869 1849 1873 1853 1747 1719 1679 1624 1571 1445 1319 1372 1605 1711 1846 2005 2103 2136 2157 2216 2239 2259 2326 2464 2659 2765 2775 2756 2767 2774 2747 2693 2655 2662 2693 2672 2610 2590 2605 2657 2665 2633 2573 2487 2387 2344 2338 2331 2286 2192 2062 1872 1868 1839 1942 1962 1865 1850 1837 1922 2047 2205 2428 2298 2502 2645 2536 2502 2573 2613 2727
1210 1296 1486 1521 1462 1370 1362 1578 1707 1712 1672 1712 1775 1819 1755 1711 1640 1593 1540 1541 1480 1312 1268 1378 1320 1178 1295 1579 1712 1782 1842 1900 1916 1885 1853 1911 2008 2133 2272 2425 2513 2541 2547 2571 2580 2561 2578 2631 2685 2703 2662 3186 2905 2704 2691 2604 2484 2418 2398 2346 2261 2168 2174 2138 2082 2034 1972 1922 1912 1928 1928 1911 1902 1869 1808 1679 1548 1416 1673 2183 2428 2511 2568 2594 2651
1391 1431 1438 1539 1647 1746 1726 1617 1477 1330 1462 1675 1805 1874 1947 2008 1898 1617 1383 1231 1102 971 976 986 1102 1156 1064 1169 1459 1639 1712 1748 1812 1786 1794 1850 1876 1923 1986 2100 2236 2320 2348 2336 2310 2267 2335 2475 2554 3154 3149 3270 3164 2944 2760 2653 2606 2524 2452 2401 2339 2224 2102 2032 1970 1906 1878 1870 1884 1885 1883 1811 1718 1641 1556 1532 1568 1796 2044 2158 2190 2217 2315 2475 2498
1272 1308 1276 1192 1092 1139 1333 1386 1239 1130 1391 1672 1778 1799 1972 2124 2163 1896 1614 1358 1075 925 812 769 748 904 964 962 1092 1295 1473 1598 1680 1769 1826 1853 1877 1861 1856 1888 1982 2117 2183 2208 2174 2151 2182 2257 2344 2708 3486 3283 2912 2745 2667 2612 2558 2507 2470 2484 2541 2292 2219 2130 2040 1976 1922 1810 1744 1709 1705 1718 1731 1711 1722 1737 1797 1848 1918 2024 2165 2293 2338 2266 2127
1168 1205 1118 1068 990 1024 1080 1051 1095 1148 1273 1465 1695 1703 1730 1949 2117 2215 1725 1260 1126 1028 1042 807 635 652 746 789 858 1054 1211 1309 1384 1499 1626 1727 1788 1810 1798 1771 1783 1869 1990 2053 2080 2115 2165 2199 2208 2214 2234 2262 2340 2414 2441 2433 2416 2382 2343 2286 2223 2182 2258 2205 2090 2031 1977 1917 1873 1831 1721 1649 1660 1676 1712 1740 1823 1905 2017 2116 2159 2151 2133 2077 2069
1089 1074 1083 1036 1011 874 894 948 981 1130 1272 1379 1442 1413 1251 1199 1469 1628 1467 1062 1037 830 910 1079 1092 933 654 674 711 697 757 1146 1286 1339 1372 1411 1493 1566 1642 1725 1738 1753 1784 1825 1889 1960 2034 2070 2074 2056 2059 2398 2748 2258 2073 2040 1920 1802 1730 1710 1716 1734 1740 1758 1860 1933 1914 1876 1845 1804 1771 1739 1706 1714 1734 1822 1968 2044 2065 2008 1968 1932 1924 1944 1952
1036 1015 1020 1050 1002 1029 1085 1025 1025 1200 1228 1216 1134 1186 1179 1252 1231 1210 1405 1168 1204 1259 1405 1479 1590 1479 1271 915 871 1061 1224 1352 1144 973 1076 1271 1365 1382 1413 1474 1507 1507 1524 1583 1664 1740 1770 1741 1713 1703 1718 1763 1829 1888 1937 1913 1768 1528 1301 1164 1093 1094 1067 1075 1098 1206 1458 1651 1712 1710 1722 1737 1769 1757 1843 2022 2011 2006 1981 1930 1898 1925 1978 2002 2112
827 872 1037 1002 995 948 946 958 937 951 963 958 1019 1144 1096 1059 1051 1059 1174 1196 1116 1069 1113 1148 1093 1564 1816 1880 1727 1577 1502 1450 1474 1395 1347 1123 1010 1103 1224 1291 1341 1354 1342 1340 1359 1379 1404 1446 1472 1490 1492 1477 1473 1505 1563 1599 1631 1590 1477 1280 1006 850 752 758 775 769 755 839 1100 1362 1523 1647 1744 1810 1885 1940 2012 2082 2084 2125 2212 2305 2352 2397 2366
455 577 698 820 894 962 965 908 865 904 963 908 845 888 940 928 963 1051 1111 1145 1213 1257 1262 1286 1156 1117 1410 1543 1809 1902 1946 2004 1906 1652 1449 1386 1368 1234 1048 984 1051 1193 1274 1301 1439 1518 1557 1587 1616 1636 1646 1630 1569 1467 1361 1305 1292 1267 1256 1248 1220 1124 999 878 740 688 683 702 769 926 1182 1437 1635 1768 1818 1858 1907 1991 2140 2424 2254 2018 1629 1187 1055
282 371 427 505 563 627 684 673 682 664 700 738 872 930 815 831 861 874 991 1196 1234 1236 1238 1266 1254 1180 1122 1199 1292 1376 1443 1666 1911 2011 2046 1918 1699 1496 1401 1328 1180 1048 1042 1190 1287 1421 1577 1687 1748 1781 1796 1789 1765 1721 1675 1575 1474 1332 1205 1114 1045 973 772 868 790 624 536 644 700 712 778 854 950 1044 1136 1221 1230 1182 1102 1036 993 923 876 905 1044
251 282 314 256 371 441 543 553 531 513 494 498 484 442 460 562 658 759 856 968 1008 1073 1015 989 1139 1216 1110 1251 1285 1268 1234 1310 1454 1593 1848 1982 2010 1922 1720 1482 1377 1334 1338 1267 1124 1070 1103 1598 2190 1542 1559 1598 1610 1615 1608 1550 1491 1421 1347 1268 1177 1095 1042 925 838 840 798 785 757 734 710 959 996 1010 1012 999 968 948 892 819 806 804 905 1047 1130
203 113 196 223 258 291 375 416 438 473 502 523 496 411 415 493 563 598 584 658 728 762 774 806 917 952 1070 1186 1250 1215 1270 1294 1292 1290 1390 1535 1722 1931 1973 1880 1732 1566 1420 1368 1354 1361 1389 1379 1461 1654 1530 1411 1334 1300 1269 1229 1199 1153 1114 1040 977 878 839 837 838 848 870 868 850 814 1077 1141 1155 1077 1102 1280 1287 1116 1258 1206 1200 1142 1122 1139 1216
9 154 189 203 220 192 200 235 276 305 348 385 425 464 468 368 464 587 643 632 632 626 629 597 679 748 838 955 1056 1124 1186 1212 1248 1291 1292 1268 1314 1443 1678 1743 1819 1802 1746 1715 1551 1377 1362 1366 1367 1389 1390 1405 1411 1429 1425 1361 1228 1147 1099 1027 909 877 861 866 869 861 890 903 908 1256 1419 1551 1656 1699 1708 1818 1863 1793 1953 1908 1902 1835 1723 1524 1525
0 0 0 0 0 0 0 43 60 78 70 71 97 90 114 168 312 460 562 679 682 679 610 557 525 595 638 644 766 907 984 1048 1139 1203 1259 1310 1268 1254 1281 1395 1520 1601 1621 1620 1616 1606 1596 1586 1618 1572 1466 1380 1334 1356 1357 1370 1374 1330 1256 1166 1084 1075 1051 1096 1188 1243 1322 1395 1473 1514 1551 1603 1679 1776 1921 2084 2207 2216 2160 2056 1958 1983 1886 1740 1595
0 0 0 0 0 0 0 0 0 0 0 0 0 0 0 0 0 0 108 211 335 483 601 657 647 615 544 568 644 716 797 841 853 892 997 1152 1249 1258 1272 1294 1360 1439 1462 1466 1484 1470 1457 1486 1620 1728 1698 1603 1397 1308 1374 1355 1318 1347 1334 1404 1488 1557 1638 1696 1740 1801 1816 1808 1799 1788 1783 1811 1855 1927 2012 2036 2033 1992 1941 1926 1998 2053 1885 1653 1520
0 0 0 0 0 0 0 0 0 0 0 0 0 0 0 0 0 0 0 0 0 0 182 345 450 544 629 628 602 616 632 641 679 743 776 844 931 1036 1130 1194 1253 1307 1326 1348 1337 1320 1311 1460 1630 1777 1806 1778 1738 1626 1444 1362 1589 1705 1784 1844 1889 1950 1994 2043 2085 2078 2073 2073 2058 2062 2065 2066 2052 2036 2011 1953 1877 1795 1740 1723 1760 1812 1844 1911 1894
0 0 0 0 0 0 0 0 0 0 0 0 0 0 0 0 0 0 0 0 0 0 0 0 0 164 325 404 421 372 373 413 497 578 634 665 687 715 751 855 984 1145 1215 1266 1294 1276 1217 1217 1428 1642 1755 1786 1792 1767 1725 1603 1418 1266 1198 1343 1478 1532 1605 1674 1777 1882 1934 1954 1918 1923 1912 1902 1850 1777 1700 1633 1608 1562 1534 1530 1573 1627 1646 1642 1597
0 0 0 0 0 0 0 0 0 0 0 0 0 0 0 0 0 0 0 0 0 0 0 0 0 0 0 0 0 38 47 134 142 221 393 542 595 605 609 619 618 661 764 931 1093 1183 1228 1188 1138 1414 1620 1696 1710 1709 1734 1778 1752 1639 1511 1389 1285 1234 1242 1212 1214 1262 1292 1336 1348 1368 1377 1410 1422 1420 1379 1307 1245 1185 1177 1212 1264 1318 1370 1358 1341
0 0 0 0 0 0 0 0 0 0 0 0 0 0 0 0 0 0 0 0 0 0 0 0 0 0 0 0 0 0 0 0 0 0 14 106 235 362 441 459 552 592 581 612 708 832 978 1082 1080 1030 1023 1112 1218 1363 1515 1628 1700 1734 1698 1593 1515 1456 1431 1441 1470 1464 1476 1461 1448 1445 1444 1430 1398 1333 1229 1104 1026 988 963 967 996 1052 1082 1107 1122
0 0 0 0 0 0 0 0 0 0 0 0 0 0 0 0 0 0 0 0 0 0 0 0 0 0 0 0 0 0 0 0 0 0 0 0 0 0 1 27 111 384 496 526 554 605 682 738 807 900 963 940 973 1098 1200 1250 1341 1468 1559 1606 1576 1521 1456 1417 1402 1395 1406 1408 1402 1435 1433 1385 1339 1268 1176 1052 956 908 953 965 1006 1067 1045 1103 1158
0 0 0 0 0 0 0 0 0 0 0 0 0 0 0 0 0 0 0 0 0 0 0 0 0 0 0 0 0 0 0 0 0 0 0 0 0 0 0 0 0 0 208 392 452 488 527 589 637 689 819 908 954 952 1014 1068 1095 1156 1288 1412 1438 1428 1402 1368 1347 1341 1344 1352 1385 1390 1392 1350 1281 1204 1054 896 938 928 894 880 920 972 1014 1054 1099
0 0 0 0 0 1 0 0 0 0 0 0 0 0 0 0 0 0 0 0 0 0 0 0 0 0 0 0 0 0 0 0 0 0 0 0 0 0 0 0 0 0 0 0 25 343 466 595 605 596 641 705 816 879 920 982 967 1029 1120 1238 1339 1353 1361 1340 1311 1261 1226 1200 1159 1214 1260 1250 1160 1009 867 783 808 856 930 980 950 881 921 990 1055
0 0 0 0 1 0 0 0 0 0 0 0 0 0 0 0 0 0 0 0 0 0 0 0 0 0 0 0 0 0 0 0 0 0 0 0 0 0 0 0 0 0 0 0 0 0 0 5 156 223 447 514 626 717 808 867 893 846 839 992 1110 1092 1072 1110 1110 1111 1080 1034 984 919 851 902 987 1010 953 890 816 799 862 941 1020 1042 1032 1036 1086
0 0 0 0 0 0 0 0 0 0 0 0 0 0 0 0 0 0 0 0 0 0 0 0 0 0 0 0 0 0 0 0 0 0 0 0 0 0 0 0 0 0 0 0 0 3 8 8 10 10 11 11 326 406 370 414 534 631 646 680 806 806 785 656 696 795 891 890 835 758 805 912 908 926 1011 1090 1131 1125 1076 1070 1100 1181 1162 1121 1122
0 0 0 0 0 0 0 0 0 0 0 0 0 0 0 0 0 0 0 0 0 0 0 0 0 0 0 0 0 0 0 0 0 0 0 0 0 0 0 0 0 0 0 0 2 7 9 9 5 2 2 4 7 7 7 8 8 9 118 454 572 650 656 631 500 450 516 618 719 776 709 709 797 926 1071 1202 1276 1306 1352 1424 1460 1472 1454 1353 1192
0 0 0 0 0 0 0 0 0 0 0 0 0 0 0 0 0 0 0 0 0 0 0 0 0 0 0 2 0 0 0 0 0 0 0 0 0 0 0 0 0 0 0 0 1 3 4 8 8 9 4 3 2 2 2 2 2 3 7 11 11 8 280 424 360 36 270 348 424 498 630 691 678 779 874 979 1104 1214 1341 1494 1576 1639 1727 1692 1609
1 1 0 0 0 0 0 0 0 0 0 0 0 0 0 0 0 0 0 0 0 0 0 0 0 0 0 7 0 0 0 0 0 0 0 0 0 0 0 0 0 0 0 0 0 2 3 3 2 4 5 7 6 7 6 3 4 5 8 11 12 12 149 172 206 252 234 62 5 101 406 498 566 629 771 889 984 1081 1225 1372 1536 1704 1852 1951 1949
3 2 0 0 0 0 0 0 0 0 0 0 0 0 0 0 0 1 0 0 1 0 0 0 0 0 0 0 0 0 0 0 0 0 0 0 0 0 0 0 0 0 0 0 0 0 0 0 0 2 2 4 5 7 7 4 5 7 12 16 13 12 12 72 11 151 262 336 310 407 307 336 400 555 810 974 857 870 967 1168 1331 1468 1688 1907 1969
1 4 4 2 1 0 0 0 0 0 0 0 0 0 0 0 2 7 0 8 16 9 0 0 0 0 0 0 0 0 0 0 0 0 0 0 0 0 0 0 0 0 0 0 0 0 0 0 0 0 1 3 4 4 3 5 7 7 9 13 13 16 18 14 12 11 10 13 13 12 10 496 672 653 702 866 881 889 856 963 1176 1307 1387 1437 1630
0 1 2 2 1 0 0 0 0 0 1 1 0 0 0 0 0 0 4 11 21 13 0 0 0 0 0 0 4 2 0 0 0 0 0 0 0 0 0 0 0 0 0 0 0 0 0 0 0 0 0 0 0 2 3 5 7 7 9 19 19 15 17 18 18 18 18 17 16 15 20 20 329 518 536 567 671 774 652 719 787 888 1151 1252 1345
0 0 0 0 0 0 0 0 0 3 4 10 0 0 1 0 2 6 16 16 12 16 8 2 17 3 0 0 19 4 0 0 0 0 0 0 0 0 0 3 1 0 0 0 0 0 0 0 0 0 0 0 0 0 1 3 4 5 9 14 19 17 10 18 13 21 19 21 20 20 9 5 6 7 6 6 5 6 9 29 33 51 390 785 951
0 0 0 0 0 0 0 2 3 3 1 0 0 1 2 4 6 11 8 2 4 5 16 5 8 14 12 14 9 4 0 0 0 0 0 2 4 3 4 2 2 2 2 0 1 0 0 0 0 0 0 0 0 0 0 0 0 2 4 7 10 13 13 14 16 16 17 16 21 13 6 6 6 8 6 157 302 90 10 6 7 8 11 56 598
0 0 3 0 0 0 0 0 1 0 0 0 0 0 0 5 10 13 6 3 1 4 2 8 12 13 18 17 11 7 6 10 15 21 29 31 10 8 3 2 1 1 1 1 1 2 1 0 0 0 0 0 0 0 0 0 0 0 0 1 6 5 6 7 12 13 15 21 15 5 4 3 4 7 7 9 9 10 6 7 498 522 497 574 659
0 0 2 0 0 0 0 0 0 0 0 0 0 1 1 20 24 10 8 6 6 8 9 14 12 14 17 19 16 14 12 15 28 39 53 57 34 24 14 6 1 0 1 1 2 2 1 1 0 0 0 0 0 0 0 0 0 0 0 2 2 4 2 1 2 4 7 13 5 1 0 0 1 1 2 4 6 10 13 11 217 323 287 488 538
0 0 0 0 0 0 0 0 0 0 0 0 0 1 14 18 21 15 12 8 14 15 14 12 10 15 15 18 13 17 20 31 52 35 15 14 25 30 31 15 3 1 1 2 2 2 2 1 0 0 0 0 0 0 0 0 0 0 0 0 0 0 0 1 2 4 4 3 2 1 2 1 0 0 0 0 2 7 8 12 10 17 407 477 473
0 0 0 0 0 0 0 0 0 0 0 0 2 11 15 21 15 18 9 11 11 16 15 14 17 26 27 14 11 14 16 25 42 28 18 11 14 30 17 6 3 5 4 3 2 2 2 0 0 0 0 0 0 0 0 0 0 0 0 0 0 0 0 0 0 2 2 2 2 2 0 0 0 0 0 0 0 1 4 6 10 11 15 17 18
0 0 0 0 0 0 0 0 0 2 4 12 13 12 17 24 11 4 5 7 14 16 14 13 21 24 22 17 19 20 22 21 25 26 22 24 18 26 4 1 2 5 6 6 5 4 2 1 0 0 0 0 0 0 0 0 0 0 0 0 0 0 0 0 0 1 2 0 0 0 0 0 0 0 0 0 0 0 0 2 4 6 8 12 12
0 0 0 0 0 0 0 0 3 10 13 21 17 16 24 10 6 7 16 15 23 19 14 21 26 24 26 29 35 38 28 24 38 36 26 16 14 4 0 0 0 2 4 4 2 3 3 2 0 0 0 0 0 0 0 0 0 0 0 0 0 0 0 0 0 0 0 0 0 0 0 0 0 0 0 0 0 1 2 1 3 3 5 5 5
0 0 0 3 6 12 12 6 18 10 18 15 13 7 11 9 7 16 22 19 17 16 17 24 28 30 28 25 34 36 36 36 29 30 34 18 15 3 0 0 0 0 0 0 0 1 1 1 0 0 0 0 0 0 0 0 1 1 1 0 0 0 0 0 0 0 0 0 0 0 0 0 0 0 1 0 0 1 0 0 1 2 2 1 2
0 0 1 8 7 13 14 10 6 11 2 0 3 4 3 3 5 12 17 19 19 19 20 24 28 25 27 32 36 35 42 46 41 39 27 21 16 9 3 2 1 0 0 0 0 0 0 0 0 0 0 0 0 1 2 2 2 3 1 0 0 0 0 0 0 0 0 0 0 0 0 0 0 0 0 0 0 0 0 0 0 1 2 2 2
0 0 4 6 10 6 4 1 4 5 5 4 9 7 5 11 16 18 16 14 15 17 19 20 19 22 26 33 40 43 44 39 39 28 21 13 11 10 6 0 0 0 0 0 0 0 0 0 0 0 0 0 1 1 1 1 1 2 2 2 2 1 1 1 0 0 0 0 0 0 0 0 0 0 0 0 0 0 0 0 0 1 2 3 3
0 0 0 1 1 2 2 2 1 4 6 6 5 4 6 14 20 19 19 20 21 24 19 19 16 21 24 28 38 41 41 44 26 15 11 2 2 1 1 0 1 0 0 0 1 0 0 0 0 0 0 0 0 0 0 0 1 0 2 4 3 2 2 1 1 1 1 1 0 0 0 0 0 0 0 0 0 0 0 1 3 4 3 4 5
0 0 0 0 0 0 0 0 0 0 0 1 0 1 10 12 10 21 22 22 20 21 12 14 14 11 18 37 46 42 38 26 18 19 19 5 0 1 1 1 0 0 0 1 3 2 2 1 0 0 0 0 0 2 2 2 1 2 2 2 2 2 2 2 2 2 1 0 0 1 0 0 0 0 0 0 0 0 0 1 3 3 3 6 9
0 0 0 0 0 0 0 0 0 0 0 0 0 0 5 8 9 10 9 15 19 18 18 10 12 26 45 40 35 40 34 28 26 16 10 2 1 0 0 0 0 0 0 1 4 5 4 2 1 0 0 0 0 1 1 2 4 4 4 3 1 0 1 1 1 1 0 0 0 1 0 0 0 0 0 0 0 0 2 4 12 12 8 6 6
Wind_Speed
13 13 13 12 11 9 9 11 11 12 12 12 11 10 10 9 8 7 10 9 9 9 8 8 7 6 5 4 4 4 4 4 6 7 7 6 6 6 7 7 6 6 7 7 8 9 9 9 10 11 12 12 12 12 12 12 13 13 13 14 15 15 15 13 12 11 13 13 13 12 12 14 13 15 14 12 11 10 11 11 12 12 11 11 12
16 18 17 16 14 11 10 11 11 12 12 12 11 11 11 11 10 10 8 8 9 7 7 8 8 7 6 5 5 4 5 5 6 7 7 6 6 7 6 7 6 6 6 6 6 7 7 8 9 10 11 10 11 11 11 12 13 14 14 15 14 14 14 15 13 14 12 15 15 14 13 16 14 15 14 13 12 13 11 11 12 13 11 10 12
22 22 20 19 17 15 13 11 11 11 11 13 11 11 12 12 13 11 9 8 9 8 7 7 7 7 6 6 5 5 5 6 7 8 8 7 7 8 8 7 7 6 5 4 4 5 6 6 6 8 10 10 10 10 11 11 12 13 12 15 14 13 14 13 15 13 13 12 15 15 15 16 17 14 14 14 14 14 12 11 11 9 8 9 10
24 23 22 20 19 18 14 13 11 10 11 12 11 11 12 12 13 12 10 10 9 8 7 7 7 7 6 6 6 5 5 6 7 8 8 8 8 8 9 8 8 7 6 6 6 6 5 5 4 6 8 8 9 10 10 11 11 12 12 13 14 12 13 15 14 14 14 14 14 14 14 15 14 15 15 14 14 13 14 11 11 9 7 7 9
25 24 22 22 21 19 17 15 14 12 10 11 10 11 11 11 13 12 12 10 10 10 9 9 8 8 7 6 6 6 5 6 6 7 7 8 8 9 10 10 9 8 8 8 8 8 7 6 4 6 7 7 8 8 9 9 10 12 12 12 12 12 13 14 14 15 15 13 12 13 14 14 15 15 15 13 13 14 13 12 10 8 6 6 7
22 21 21 21 19 19 18 18 15 13 12 11 10 10 11 12 12 12 12 10 10 10 10 10 10 9 8 7 7 7 7 7 6 6 6 8 9 9 10 11 10 10 10 10 10 10 9 8 7 8 9 8 6 7 8 8 9 10 11 11 11 12 12 13 15 16 15 13 14 12 14 12 14 14 14 14 12 11 9 8 9 9 8 5 6
25 22 23 21 21 20 20 19 18 16 15 15 15 16 15 15 15 14 14 13 12 11 11 11 11 10 8 8 8 8 8 9 8 7 8 9 9 10 10 11 11 11 11 10 10 11 10 10 10 10 10 10 8 8 8 8 8 8 8 9 10 11 11 11 13 14 14 14 14 15 13 13 15 12 14 15 14 14 11 7 6 9 9 8 5
21 22 25 25 23 22 21 21 22 24 24 22 21 20 19 19 18 18 18 16 15 14 15 14 13 12 10 9 8 9 10 10 10 10 10 10 10 10 10 10 10 11 11 11 11 11 11 11 11 11 11 11 10 10 11 10 11 10 9 10 9 10 9 9 10 10 11 12 13 12 14 14 15 15 15 16 13 12 13 11 8 6 4 7 8
25 26 28 29 30 29 26 25 27 27 28 30 29 28 28 28 29 27 23 20 17 16 17 17 17 16 15 13 12 12 12 11 12 12 11 10 10 9 9 9 10 10 11 11 11 11 11 12 12 12 12 10 9 9 10 12 13 12 11 12 11 10 9 10 9 9 9 10 9 11 11 11 10 11 10 11 10 8 11 13 9 9 9 7 6
32 32 32 33 34 33 31 30 29 29 32 33 35 32 28 26 26 25 25 26 26 23 19 17 16 16 16 16 16 15 14 15 12 7 9 10 10 9 10 9 10 10 11 11 11 11 11 12 12 9 8 7 8 7 7 7 9 12 12 13 13 12 11 11 11 11 11 10 9 9 9 9 8 8 9 10 10 10 9 10 9 8 12 10 11
33 34 35 36 35 34 33 33 32 31 30 28 27 24 22 23 24 23 22 23 25 25 25 22 19 17 15 15 15 15 15 15 9 8 7 6 9 11 10 9 10 10 11 12 11 10 12 12 13 11 11 11 10 8 8 8 8 8 7 8 12 15 13 13 12 14 14 12 12 13 12 10 8 8 8 8 9 8 8 10 9 12 12 13 12
30 34 35 35 35 35 35 35 34 32 29 27 24 24 29 30 28 27 25 23 25 28 27 25 24 23 21 20 17 16 16 13 9 10 10 9 10 12 13 11 11 12 11 11 11 12 12 12 13 14 14 13 14 14 13 10 10 10 9 9 9 10 12 15 14 15 17 14 13 14 15 13 10 12 11 12 8 10 11 12 12 12 12 13 15
27 31 32 33 35 35 36 36 36 35 33 30 31 33 34 34 31 29 28 29 30 29 28 28 26 24 22 21 21 22 22 20 15 11 10 11 11 13 15 15 14 13 12 12 13 13 14 14 13 14 13 10 12 14 16 16 14 13 13 12 12 13 12 12 14 16 17 19 16 15 18 17 15 14 18 16 15 13 14 14 15 16 16 15 14
23 25 27 30 32 34 34 35 36 36 35 36 35 35 35 34 32 30 29 32 31 30 30 31 30 27 25 23 22 22 22 23 23 18 14 12 12 15 17 16 16 15 14 14 14 14 14 15 14 13 13 14 14 14 16 16 17 18 18 19 19 17 15 14 14 14 17 18 18 16 17 26 18 16 19 23 19 14 15 14 16 16 15 14 15
28 28 26 25 27 31 33 34 35 35 35 35 36 38 38 36 35 33 34 35 34 32 32 34 34 32 30 27 25 23 23 24 24 23 19 15 13 17 17 17 16 16 16 15 15 14 15 15 15 14 14 14 14 14 15 15 16 16 16 16 16 16 18 19 20 21 21 20 18 15 15 20 20 17 19 24 21 18 18 16 17 17 14 16 16
31 30 29 27 27 28 28 29 31 31 32 31 34 36 36 35 34 30 32 35 33 32 32 31 32 33 30 29 28 26 24 24 24 24 24 23 20 21 19 18 17 17 17 17 17 17 16 16 16 15 15 15 13 12 13 16 17 14 13 13 13 13 14 16 17 19 20 21 20 17 16 17 18 17 18 22 22 20 21 21 20 19 16 14 12
32 32 32 30 27 27 27 25 23 22 20 22 25 27 30 31 29 27 27 28 30 30 31 33 31 30 29 28 29 28 28 27 28 28 27 28 26 24 23 21 21 20 20 21 21 21 21 20 19 17 17 16 14 14 14 16 17 14 13 11 11 11 10 15 20 17 15 15 14 14 12 11 11 10 11 13 17 20 22 17 14 17 16 13 14
32 31 29 28 27 29 30 30 28 23 20 19 19 17 18 20 23 24 26 27 28 28 29 33 34 32 28 29 29 30 30 35 39 36 34 31 26 25 25 24 23 24 24 25 24 22 20 16 17 19 18 17 16 17 17 22 19 16 15 13 11 10 10 17 22 19 17 16 14 13 12 11 11 9 9 10 12 22 23 15 14 20 17 16 15
31 30 29 28 29 29 31 33 33 30 26 22 20 18 17 18 20 22 25 27 27 26 27 31 33 32 30 30 36 35 34 35 37 37 36 34 31 28 27 27 26 26 27 26 26 25 24 22 18 18 20 20 19 19 19 24 21 18 18 17 14 12 14 22 23 19 20 20 18 18 17 15 16 17 16 12 13 21 23 17 18 21 17 15 17
nan 28 29 31 30 29 29 31 31 31 31 30 29 28 25 25 24 22 23 25 27 27 28 32 34 34 32 32 33 33 35 36 37 39 38 38 37 32 31 31 29 28 28 28 28 28 28 27 27 26 22 21 22 22 22 23 22 20 22 20 17 13 21 25 24 23 23 23 22 23 20 21 21 21 21 20 21 24 24 22 22 23 20 17 18
nan nan nan nan nan nan nan nan nan nan nan nan nan nan 34 33 31 30 28 27 28 27 27 28 32 31 29 30 32 33 34 36 36 42 43 45 44 41 37 36 34 32 31 29 30 29 29 30 29 34 40 40 37 35 32 29 25 23 22 22 21 21 28 28 27 26 27 26 25 24 23 24 24 24 23 22 22 25 27 26 25 26 24 20 19
nan nan nan nan nan nan nan nan nan nan nan nan nan nan nan nan nan nan 32 31 31 30 27 26 27 28 27 29 32 34 36 38 35 42 46 47 47 45 41 40 37 34 34 32 31 29 29 31 31 38 38 36 33 32 31 32 30 30 26 22 19 20 21 25 26 27 26 25 24 24 24 25 26 26 26 25 25 26 26 27 28 27 26 24 22
nan nan nan nan nan nan nan nan nan nan nan nan nan nan nan nan nan nan nan nan nan nan 32 29 27 27 26 27 29 32 34 34 38 38 42 44 44 44 43 42 39 38 38 36 34 31 30 31 31 33 33 31 31 29 28 27 30 29 26 25 24 22 24 26 28 28 27 26 25 24 24 26 27 27 28 28 27 28 27 28 29 30 28 26 25
nan nan nan nan nan nan nan nan nan nan nan nan nan nan nan nan nan nan nan nan nan nan nan nan nan 32 30 28 28 29 30 32 33 36 37 42 42 41 40 40 41 38 37 35 34 33 32 31 30 28 27 27 28 30 30 30 30 27 27 26 27 29 31 30 30 30 29 27 26 24 23 26 27 27 27 28 27 29 28 28 28 29 30 28 27
nan nan nan nan nan nan nan nan nan nan nan nan nan nan nan nan nan nan nan nan nan nan nan nan nan nan nan nan nan nan nan 30 31 32 37 39 39 38 37 36 38 38 37 36 35 34 31 26 25 24 25 25 25 28 30 29 27 28 28 29 30 32 31 31 29 30 28 27 26 25 23 24 25 24 24 26 27 28 30 30 29 29 30 29 28
nan nan nan nan nan nan nan nan nan nan nan nan nan nan nan nan nan nan nan nan nan nan nan nan nan nan nan nan nan nan nan nan nan nan nan 35 35 35 35 35 36 36 34 33 33 31 29 27 25 25 26 27 30 32 32 31 30 28 28 30 34 31 30 29 29 29 26 27 27 24 23 24 24 25 26 28 28 27 30 29 30 29 32 31 29
nan nan nan nan nan nan nan nan nan nan nan nan nan nan nan nan nan nan nan nan nan nan nan nan nan nan nan nan nan nan nan nan nan nan nan nan nan nan nan nan 34 35 36 35 35 35 34 33 32 29 29 27 26 27 29 30 31 33 34 34 34 32 31 30 28 27 26 26 26 25 25 25 26 27 26 27 27 28 31 28 28 28 34 35 32
nan nan nan nan nan nan nan nan nan nan nan nan nan nan nan nan nan nan nan nan nan nan nan nan nan nan nan nan nan nan nan nan nan nan nan nan nan nan nan nan nan nan 35 35 34 34 34 33 32 35 37 37 36 35 34 34 33 34 34 34 34 33 31 27 26 28 27 27 25 25 24 25 24 24 26 26 25 27 30 29 28 28 33 37 35
nan nan nan nan nan nan nan nan nan nan nan nan nan nan nan nan nan nan nan nan nan nan nan nan nan nan nan nan nan nan nan nan nan nan nan nan nan nan nan nan nan nan nan nan nan 35 36 37 38 38 39 38 39 39 37 36 36 35 34 35 35 34 33 32 30 29 29 29 27 25 24 26 25 25 25 24 24 26 30 29 28 28 31 36 33
nan nan nan nan nan nan nan nan nan nan nan nan nan nan nan nan nan nan nan nan nan nan nan nan nan nan nan nan nan nan nan nan nan nan nan nan nan nan nan nan nan nan nan nan nan nan nan nan 41 40 37 36 37 39 38 37 37 37 37 36 35 35 33 32 31 30 30 30 28 27 26 27 25 25 25 23 22 26 29 31 29 30 30 32 31
nan nan nan nan nan nan nan nan nan nan nan nan nan nan nan nan nan nan nan nan nan nan nan nan nan nan nan nan nan nan nan nan nan nan nan nan nan nan nan nan nan nan nan nan nan nan nan nan nan nan nan nan 40 41 41 40 40 39 38 39 39 36 33 33 32 31 30 29 28 28 27 27 26 25 24 23 23 23 27 30 31 30 30 30 29
nan nan nan nan nan nan nan nan nan nan nan nan nan nan nan nan nan nan nan nan nan nan nan nan nan nan nan nan nan nan nan nan nan nan nan nan nan nan nan nan nan nan nan nan nan nan nan nan nan nan nan nan nan nan nan nan nan nan 37 38 39 41 40 39 38 34 32 31 29 28 27 27 27 26 26 25 25 24 25 26 29 29 29 30 29
nan nan nan nan nan nan nan nan nan nan nan nan nan nan nan nan nan nan nan nan nan nan nan nan nan nan nan nan nan nan nan nan nan nan nan nan nan nan nan nan nan nan nan nan nan nan nan nan nan nan nan nan nan nan nan nan nan nan nan nan nan nan 41 40 38 nan 39 37 34 31 30 28 28 27 27 27 27 25 26 26 27 29 29 27 27
nan nan nan nan nan nan nan nan nan nan nan nan nan nan nan nan nan nan nan nan nan nan nan nan nan nan nan nan nan nan nan nan nan nan nan nan nan nan nan nan nan nan nan nan nan nan nan nan nan nan nan nan nan nan nan nan nan nan nan nan nan nan 44 44 43 43 42 nan nan 37 35 34 32 30 29 29 29 28 27 27 28 29 29 29 27
nan nan nan nan nan nan nan nan nan nan nan nan nan nan nan nan nan nan nan nan nan nan nan nan nan nan nan nan nan nan nan nan nan nan nan nan nan nan nan nan nan nan nan nan nan nan nan nan nan nan nan nan nan nan nan nan nan nan nan nan nan nan nan nan nan 47 45 43 42 42 41 39 38 36 34 33 32 31 30 29 30 30 29 29 29
nan nan nan nan nan nan nan nan nan nan nan nan nan nan nan nan nan nan nan nan nan nan nan nan nan nan nan nan nan nan nan nan nan nan nan nan nan nan nan nan nan nan nan nan nan nan nan nan nan nan nan nan nan nan nan nan nan nan nan nan nan nan nan nan nan nan nan nan nan nan nan 45 45 45 44 41 37 35 34 32 32 31 31 30 31
nan nan nan nan nan nan nan nan nan nan nan nan nan nan nan nan nan nan nan nan nan nan nan nan nan nan nan nan nan nan nan nan nan nan nan nan nan nan nan nan nan nan nan nan nan nan nan nan nan nan nan nan nan nan nan nan nan nan nan nan nan nan nan nan nan nan nan nan nan nan nan nan 52 53 52 48 45 43 40 38 36 34 33 31 32
nan nan nan nan nan nan nan nan nan nan nan nan nan nan nan nan nan nan nan nan nan nan nan nan nan nan nan nan nan nan nan nan nan nan nan nan nan nan nan nan nan nan nan nan nan nan nan nan nan nan nan nan nan nan nan nan nan nan nan nan nan nan nan nan nan nan nan nan nan nan nan nan nan nan nan nan nan nan nan nan nan nan 39 36 37
nan nan nan nan nan nan nan nan nan nan nan nan nan nan nan nan nan nan nan nan nan nan nan nan nan nan nan nan nan nan nan nan nan nan nan nan nan nan nan nan nan nan nan nan nan nan nan nan nan nan nan nan nan nan nan nan nan nan nan nan nan nan nan nan nan nan nan nan nan nan nan nan nan nan nan 56 53 nan nan nan nan nan nan nan 42
nan nan nan nan nan nan nan nan nan nan nan nan nan nan nan nan nan nan nan nan nan nan nan nan nan nan nan nan nan nan nan nan nan nan nan nan nan nan nan nan nan nan nan nan nan nan nan nan nan nan nan nan nan nan nan nan nan nan nan nan nan nan nan nan nan nan nan nan nan nan nan nan nan nan nan nan nan nan nan nan 48 47 46 45 44
nan nan nan nan nan nan nan nan nan nan nan nan nan nan nan nan nan nan nan nan nan nan nan nan nan nan nan nan nan nan nan nan nan nan nan nan nan nan nan nan nan nan nan nan nan nan nan nan nan nan nan nan nan nan nan nan nan nan nan nan nan nan nan nan nan nan nan nan nan nan nan nan nan nan nan nan nan nan nan nan 51 50 51 49 45
nan nan nan nan nan nan nan nan nan nan nan nan nan nan nan nan nan nan nan nan nan nan nan nan nan nan nan nan nan nan nan nan nan nan nan nan nan nan nan nan nan nan nan nan nan nan nan nan nan nan nan nan nan nan nan nan nan nan nan nan nan nan nan nan nan nan nan nan nan nan nan nan nan nan nan nan nan nan nan nan nan nan 51 50 49
nan nan nan nan nan nan nan nan nan nan nan nan nan nan nan nan nan nan nan nan nan nan nan nan nan nan nan nan nan nan nan nan nan nan nan nan nan nan nan nan nan nan nan nan nan nan nan nan nan nan nan nan nan nan nan nan nan nan nan nan nan nan nan nan nan nan nan nan nan nan nan nan nan nan nan nan nan nan nan nan nan nan nan nan nan
nan nan nan nan nan nan nan nan nan nan nan nan nan nan nan nan nan nan nan nan nan nan nan nan nan nan nan nan nan nan nan nan nan nan nan nan nan nan nan nan nan nan nan nan nan nan nan nan nan nan nan nan nan nan nan nan nan nan nan nan nan nan nan nan nan nan nan nan nan nan nan nan nan nan nan nan nan nan nan nan nan nan nan nan nan
nan nan nan nan nan nan nan nan nan nan nan nan nan nan nan nan nan nan nan nan nan nan nan nan nan nan nan nan nan nan nan nan nan nan nan nan nan nan nan nan nan nan nan nan nan nan nan nan nan nan nan nan nan nan nan nan nan nan nan nan nan nan nan nan nan nan nan nan nan nan nan nan nan nan nan nan nan nan nan nan nan nan nan nan nan
nan nan nan nan nan nan nan nan nan nan nan nan nan nan nan nan nan nan nan nan nan nan nan nan nan nan nan nan nan nan nan nan nan nan nan nan nan nan nan nan nan nan nan nan nan nan nan nan nan nan nan nan nan nan nan nan nan nan nan nan nan nan nan nan nan nan nan nan nan nan nan nan nan nan nan nan nan nan nan nan nan nan nan nan nan
nan nan nan nan nan nan nan nan nan nan nan nan nan nan nan nan nan nan nan nan nan nan nan nan nan nan nan nan nan nan nan nan nan nan nan nan nan nan nan nan nan nan nan nan nan nan nan nan nan nan nan nan nan nan nan nan nan nan nan nan nan nan nan nan nan nan nan nan nan nan nan nan nan nan nan nan nan nan nan nan nan nan nan nan nan
nan nan nan nan nan nan nan nan nan nan nan nan nan nan nan nan nan nan nan nan nan nan nan nan nan nan nan nan nan nan nan nan nan nan nan nan nan nan nan nan nan nan nan nan nan nan nan nan nan nan nan nan nan nan nan nan nan nan nan nan nan nan nan nan nan nan nan nan nan nan nan nan nan nan nan nan nan nan nan nan nan nan nan nan nan
nan nan nan nan nan nan nan nan nan nan nan nan nan nan nan nan nan nan nan nan nan nan nan nan nan nan nan nan nan nan nan nan nan nan nan nan nan nan nan nan nan nan nan nan nan nan nan nan nan nan nan nan nan nan nan nan nan nan nan nan nan nan nan nan nan nan nan nan nan nan nan nan nan nan nan nan nan nan nan nan nan nan nan nan nan
nan nan nan nan nan nan nan nan nan nan nan nan nan nan nan nan nan nan nan nan nan nan nan nan nan nan nan nan nan nan nan nan nan nan nan nan nan nan nan nan nan nan nan nan nan nan nan nan nan nan nan nan nan nan nan nan nan nan nan nan nan nan nan nan nan nan nan nan nan nan nan nan nan nan nan nan nan nan nan nan nan nan nan nan nan
nan nan nan nan nan nan nan nan nan nan nan nan nan nan nan nan nan nan nan nan nan nan nan nan nan nan nan nan nan nan nan nan nan nan nan nan nan nan nan nan nan nan nan nan nan nan nan nan nan nan nan nan nan nan nan nan nan nan nan nan nan nan nan nan nan nan nan nan nan nan nan nan nan nan nan nan nan nan nan nan nan nan nan nan nan
Wind_Direction
232 232 235 235 240 239 230 228 228 227 228 233 239 241 241 241 235 221 217 211 214 213 215 211 215 220 222 223 234 241 237 234 237 238 238 229 221 215 215 225 219 205 208 194 201 202 201 200 195 199 208 205 202 204 207 214 227 237 240 241 237 238 243 244 237 221 227 243 248 246 239 242 250 269 266 270 271 274 281 296 300 305 315 324 326
227 226 228 230 232 237 235 235 237 233 232 233 236 239 242 245 243 235 226 216 223 221 221 220 221 227 228 225 237 249 256 263 263 264 263 255 244 241 233 236 232 218 220 201 199 207 211 208 198 201 215 218 213 215 220 216 223 227 234 240 243 247 251 245 245 246 230 240 245 253 254 265 268 273 279 275 274 279 275 277 289 304 317 321 320
227 227 228 227 225 228 231 233 241 245 243 239 238 239 243 246 246 248 241 227 226 227 230 234 236 240 238 238 240 245 257 263 264 269 273 274 270 261 257 256 255 250 245 226 215 222 219 218 204 214 224 225 220 220 228 228 233 238 234 243 248 250 256 260 256 248 246 245 262 260 267 268 282 278 283 292 292 294 293 289 291 296 305 308 312
229 233 233 232 228 229 228 227 231 237 243 244 245 242 243 246 249 250 246 239 235 227 230 240 248 253 256 255 256 255 258 260 264 267 272 272 269 269 268 267 265 263 265 261 253 249 242 230 217 225 228 226 221 223 224 233 242 245 246 245 255 257 263 269 271 270 262 262 256 269 268 272 272 283 292 293 296 295 302 301 301 308 303 298 305
225 226 234 239 234 232 230 230 227 224 227 235 239 245 247 248 250 252 248 240 235 234 228 234 244 252 261 266 269 269 268 268 268 268 264 262 261 259 260 262 263 263 262 262 263 263 259 255 239 240 239 230 222 226 228 232 238 248 249 249 256 262 264 272 276 278 277 275 270 273 275 275 282 284 289 290 286 294 298 300 303 301 296 307 306
231 236 237 242 241 237 230 225 230 230 225 224 226 232 237 239 242 242 244 237 227 229 233 232 237 244 248 255 263 270 270 267 266 264 263 258 255 253 252 254 255 254 252 253 256 258 260 260 252 253 253 256 243 237 237 235 234 241 246 248 254 258 262 263 272 278 282 283 284 272 274 280 271 282 292 295 293 287 286 299 300 297 295 282 292
211 222 231 235 238 237 234 227 222 223 227 225 220 222 225 229 231 229 231 227 220 216 220 223 226 233 235 242 248 257 262 262 259 251 246 247 251 251 250 251 250 249 247 248 248 250 254 254 254 258 262 267 264 262 260 254 251 245 249 250 253 258 257 260 265 272 279 279 278 290 288 286 291 286 288 292 295 302 306 289 287 300 297 304 284
232 225 227 230 232 236 234 226 223 218 215 217 219 218 220 223 226 227 227 224 220 217 215 216 217 222 223 228 231 240 248 251 254 253 249 247 246 246 249 249 250 251 248 246 244 244 246 246 247 251 259 262 267 265 269 267 266 260 258 258 254 257 257 258 260 265 266 270 275 271 278 276 273 283 278 278 281 287 306 312 310 290 268 289 302
240 237 229 225 225 227 227 225 223 222 220 218 218 218 217 218 218 218 220 222 225 224 221 220 219 215 214 216 218 222 229 235 242 250 254 251 249 247 251 252 256 256 254 252 249 246 243 245 244 246 251 258 270 267 267 271 266 265 264 271 269 270 265 265 270 265 266 268 260 270 268 265 274 272 269 282 297 307 293 293 292 293 291 277 281
234 231 231 230 229 227 225 222 221 224 227 228 227 223 221 227 232 232 232 225 217 217 222 228 230 228 225 222 221 221 223 227 230 248 257 252 253 249 247 250 255 258 257 254 250 251 249 247 246 252 257 256 256 258 259 262 270 271 269 273 278 277 278 277 276 281 281 277 280 279 273 276 277 283 283 286 284 276 271 282 278 267 267 275 282
231 227 228 231 231 230 229 225 222 224 229 231 234 235 237 233 235 236 235 235 235 231 223 222 222 226 235 238 234 230 229 231 238 244 246 253 243 241 244 248 254 256 258 258 254 252 250 250 248 243 245 249 249 254 256 260 260 265 272 276 279 280 277 276 276 280 282 285 282 280 285 280 279 279 279 268 268 274 275 272 276 268 270 265 259
234 229 226 228 231 233 234 232 228 226 228 227 221 221 226 231 228 223 221 227 238 240 233 228 224 221 222 225 231 234 235 237 246 251 255 254 247 236 234 236 245 250 254 258 257 256 253 250 251 250 251 253 252 252 256 263 268 267 270 272 273 277 279 279 277 274 280 284 283 288 283 284 280 273 267 267 263 264 274 276 277 281 278 278 279
235 231 227 228 231 234 235 234 230 227 226 231 234 234 232 230 230 226 217 214 216 227 235 236 231 227 224 226 229 230 230 225 221 232 251 263 269 259 239 237 238 243 249 252 254 256 255 253 249 251 251 255 256 255 255 252 259 269 272 270 268 282 293 299 296 290 280 281 283 283 289 284 280 279 280 277 275 273 269 273 279 284 288 285 285
239 235 229 228 228 230 233 234 232 231 233 236 240 243 240 236 235 231 223 218 217 218 224 231 233 233 232 229 228 233 237 235 235 233 231 233 247 264 257 252 245 241 243 248 252 258 262 262 259 255 256 256 257 257 257 258 258 258 261 267 270 275 289 303 306 307 295 286 283 284 283 283 288 285 283 283 283 284 281 281 280 277 279 288 286
240 238 233 229 225 225 229 234 234 233 235 240 240 241 237 233 232 232 229 225 224 227 230 232 230 228 228 232 230 229 234 241 237 238 237 243 247 258 256 256 252 246 244 246 249 256 262 268 270 271 268 269 269 272 269 266 266 267 267 268 273 276 278 280 283 284 286 288 291 292 286 285 290 291 286 287 293 293 292 290 287 284 276 271 270
244 241 239 235 227 220 220 224 228 229 231 234 238 238 237 234 231 231 233 231 231 235 238 239 235 228 220 226 234 230 229 223 228 234 237 234 242 248 250 252 250 246 242 241 242 245 251 258 262 262 265 267 271 282 279 270 269 270 271 273 272 277 283 291 295 291 291 293 295 297 295 297 301 298 292 290 290 288 282 278 274 275 270 264 263
246 248 251 245 231 226 224 223 225 229 230 235 236 236 238 236 231 233 235 235 240 243 245 245 238 229 224 224 230 235 233 228 224 227 232 236 244 245 245 245 245 244 242 239 238 239 242 249 253 254 255 257 262 270 273 271 264 266 268 267 268 269 274 274 287 301 309 315 320 319 317 310 304 302 297 295 293 283 277 270 272 273 269 265 264
246 249 250 249 244 243 245 244 241 240 242 248 254 253 252 250 245 240 240 241 243 241 240 240 239 235 227 227 230 235 236 234 232 231 233 240 243 244 247 249 246 247 244 246 245 243 243 242 251 255 256 255 259 266 271 272 270 270 270 268 263 263 261 263 266 277 301 313 320 323 319 315 311 310 307 307 311 295 293 296 286 274 273 277 269
240 241 242 245 249 250 251 252 253 253 254 258 260 258 257 256 249 242 238 238 239 245 243 240 238 238 235 231 229 231 236 238 236 236 235 239 247 252 252 250 247 245 244 243 246 247 242 239 235 237 242 244 249 259 267 275 275 276 278 274 271 268 265 263 270 273 275 277 280 282 280 291 291 290 291 301 299 294 296 297 280 280 280 275 275
nan 245 245 249 250 248 249 251 254 257 259 259 257 256 255 254 253 252 243 236 238 240 240 238 238 236 233 231 233 233 236 237 237 236 239 238 242 246 251 250 247 248 249 246 244 245 247 246 244 240 235 231 231 235 242 257 269 271 273 275 271 261 264 271 279 284 280 281 280 278 279 276 277 280 280 279 281 284 289 289 285 283 282 277 277
nan nan nan nan nan nan nan nan nan nan nan nan nan nan 256 256 256 255 252 245 243 244 244 243 245 245 240 236 236 236 237 239 238 237 240 241 241 243 246 246 245 246 247 246 247 246 244 245 246 244 242 244 244 245 248 253 264 265 267 270 272 257 252 263 269 268 272 275 276 277 279 278 278 279 278 277 278 278 281 284 285 286 287 285 280
nan nan nan nan nan nan nan nan nan nan nan nan nan nan nan nan nan nan 256 252 247 246 247 248 250 251 249 245 242 241 238 238 242 243 248 247 244 244 248 249 249 252 254 255 253 252 251 251 251 252 245 242 241 243 246 252 259 268 269 269 255 246 255 264 266 269 271 272 274 275 276 277 277 278 279 279 278 278 280 282 286 288 290 291 289
nan nan nan nan nan nan nan nan nan nan nan nan nan nan nan nan nan nan nan nan nan nan 249 250 252 252 253 252 249 245 242 241 242 247 252 248 245 245 246 248 245 250 253 254 254 254 254 253 253 246 240 239 241 244 248 249 256 265 267 266 267 266 266 269 270 271 271 271 272 274 275 276 275 276 278 279 281 283 284 287 289 293 293 292 292
nan nan nan nan nan nan nan nan nan nan nan nan nan nan nan nan nan nan nan nan nan nan nan nan nan 252 251 251 251 250 248 246 244 243 252 249 245 242 241 243 246 248 251 252 252 253 255 255 255 248 246 248 248 247 248 253 261 257 258 261 263 266 269 270 273 274 274 274 275 275 275 275 275 274 276 280 282 285 288 289 290 292 294 293 295
nan nan nan nan nan nan nan nan nan nan nan nan nan nan nan nan nan nan nan nan nan nan nan nan nan nan nan nan nan nan nan 251 250 246 250 249 246 241 239 238 240 244 248 251 251 250 249 247 249 251 254 254 256 256 256 256 255 257 258 259 262 267 270 273 274 275 276 277 276 274 273 273 275 274 272 272 274 276 278 280 282 285 288 290 291
nan nan nan nan nan nan nan nan nan nan nan nan nan nan nan nan nan nan nan nan nan nan nan nan nan nan nan nan nan nan nan nan nan nan nan 243 245 242 239 240 240 244 250 254 248 242 241 241 246 254 259 261 261 261 260 259 257 255 256 260 263 264 266 267 269 273 274 273 273 273 272 270 272 272 271 271 272 274 277 278 279 281 282 282 282
nan nan nan nan nan nan nan nan nan nan nan nan nan nan nan nan nan nan nan nan nan nan nan nan nan nan nan nan nan nan nan nan nan nan nan nan nan nan nan nan 247 249 251 249 247 247 245 246 248 247 254 254 255 256 258 257 256 258 260 264 266 265 265 267 268 269 269 269 270 270 269 270 269 269 271 272 273 273 277 276 276 277 279 281 285
nan nan nan nan nan nan nan nan nan nan nan nan nan nan nan nan nan nan nan nan nan nan nan nan nan nan nan nan nan nan nan nan nan nan nan nan nan nan nan nan nan nan 253 250 248 249 250 251 252 255 256 256 257 258 259 262 261 259 258 260 262 263 263 265 265 268 269 271 270 269 269 271 273 275 274 275 274 272 272 274 275 275 277 281 284
nan nan nan nan nan nan nan nan nan nan nan nan nan nan nan nan nan nan nan nan nan nan nan nan nan nan nan nan nan nan nan nan nan nan nan nan nan nan nan nan nan nan nan nan nan 254 255 255 255 255 256 253 250 250 253 255 257 260 258 257 259 262 264 265 266 268 271 272 273 273 273 274 276 276 276 273 273 271 272 272 275 276 276 282 286
nan nan nan nan nan nan nan nan nan nan nan nan nan nan nan nan nan nan nan nan nan nan nan nan nan nan nan nan nan nan nan nan nan nan nan nan nan nan nan nan nan nan nan nan nan nan nan nan 253 254 255 253 248 248 250 251 253 255 256 255 254 256 261 265 267 268 270 272 272 271 271 272 272 273 275 276 271 272 275 278 275 278 279 282 285
nan nan nan nan nan nan nan nan nan nan nan nan nan nan nan nan nan nan nan nan nan nan nan nan nan nan nan nan nan nan nan nan nan nan nan nan nan nan nan nan nan nan nan nan nan nan nan nan nan nan nan nan 246 244 243 245 247 249 248 245 246 249 255 261 263 265 266 268 270 272 272 272 272 271 273 274 274 273 275 280 280 279 281 281 282
nan nan nan nan nan nan nan nan nan nan nan nan nan nan nan nan nan nan nan nan nan nan nan nan nan nan nan nan nan nan nan nan nan nan nan nan nan nan nan nan nan nan nan nan nan nan nan nan nan nan nan nan nan nan nan nan nan nan 245 242 241 244 246 249 249 252 256 259 262 265 268 271 272 272 273 274 275 275 276 278 282 282 282 282 282
nan nan nan nan nan nan nan nan nan nan nan nan nan nan nan nan nan nan nan nan nan nan nan nan nan nan nan nan nan nan nan nan nan nan nan nan nan nan nan nan nan nan nan nan nan nan nan nan nan nan nan nan nan nan nan nan nan nan nan nan nan nan 250 250 250 nan 253 252 253 256 259 262 267 270 274 276 277 277 277 279 280 282 283 283 283
nan nan nan nan nan nan nan nan nan nan nan nan nan nan nan nan nan nan nan nan nan nan nan nan nan nan nan nan nan nan nan nan nan nan nan nan nan nan nan nan nan nan nan nan nan nan nan nan nan nan nan nan nan nan nan nan nan nan nan nan nan nan 248 249 250 251 252 nan nan 252 253 254 259 266 272 276 279 280 279 280 280 280 281 282 282
nan nan nan nan nan nan nan nan nan nan nan nan nan nan nan nan nan nan nan nan nan nan nan nan nan nan nan nan nan nan nan nan nan nan nan nan nan nan nan nan nan nan nan nan nan nan nan nan nan nan nan nan nan nan nan nan nan nan nan nan nan nan nan nan nan 248 250 252 253 253 252 251 253 257 264 270 274 276 277 277 278 279 278 277 278
nan nan nan nan nan nan nan nan nan nan nan nan nan nan nan nan nan nan nan nan nan nan nan nan nan nan nan nan nan nan nan nan nan nan nan nan nan nan nan nan nan nan nan nan nan nan nan nan nan nan nan nan nan nan nan nan nan nan nan nan nan nan nan nan nan nan nan nan nan nan nan 253 253 253 254 256 261 265 269 271 273 275 278 279 277
nan nan nan nan nan nan nan nan nan nan nan nan nan nan nan nan nan nan nan nan nan nan nan nan nan nan nan nan nan nan nan nan nan nan nan nan nan nan nan nan nan nan nan nan nan nan nan nan nan nan nan nan nan nan nan nan nan nan nan nan nan nan nan nan nan nan nan nan nan nan nan nan 252 253 254 254 255 257 259 262 266 269 273 278 279
nan nan nan nan nan nan nan nan nan nan nan nan nan nan nan nan nan nan nan nan nan nan nan nan nan nan nan nan nan nan nan nan nan nan nan nan nan nan nan nan nan nan nan nan nan nan nan nan nan nan nan nan nan nan nan nan nan nan nan nan nan nan nan nan nan nan nan nan nan nan nan nan nan nan nan nan nan nan nan nan nan nan 263 268 272
nan nan nan nan nan nan nan nan nan nan nan nan nan nan nan nan nan nan nan nan nan nan nan nan nan nan nan nan nan nan nan nan nan nan nan nan nan nan nan nan nan nan nan nan nan nan nan nan nan nan nan nan nan nan nan nan nan nan nan nan nan nan nan nan nan nan nan nan nan nan nan nan nan nan nan 255 255 nan nan nan nan nan nan nan 262
nan nan nan nan nan nan nan nan nan nan nan nan nan nan nan nan nan nan nan nan nan nan nan nan nan nan nan nan nan nan nan nan nan nan nan nan nan nan nan nan nan nan nan nan nan nan nan nan nan nan nan nan nan nan nan nan nan nan nan nan nan nan nan nan nan nan nan nan nan nan nan nan nan nan nan nan nan nan nan nan 258 259 260 261 262
nan nan nan nan nan nan nan nan nan nan nan nan nan nan nan nan nan nan nan nan nan nan nan nan nan nan nan nan nan nan nan nan nan nan nan nan nan nan nan nan nan nan nan nan nan nan nan nan nan nan nan nan nan nan nan nan nan nan nan nan nan nan nan nan nan nan nan nan nan nan nan nan nan nan nan nan nan nan nan nan 258 259 261 261 259
nan nan nan nan nan nan nan nan nan nan nan nan nan nan nan nan nan nan nan nan nan nan nan nan nan nan nan nan nan nan nan nan nan nan nan nan nan nan nan nan nan nan nan nan nan nan nan nan nan nan nan nan nan nan nan nan nan nan nan nan nan nan nan nan nan nan nan nan nan nan nan nan nan nan nan nan nan nan nan nan nan nan 258 258 258
nan nan nan nan nan nan nan nan nan nan nan nan nan nan nan nan nan nan nan nan nan nan nan nan nan nan nan nan nan nan nan nan nan nan nan nan nan nan nan nan nan nan nan nan nan nan nan nan nan nan nan nan nan nan nan nan nan nan nan nan nan nan nan nan nan nan nan nan nan nan nan nan nan nan nan nan nan nan nan nan nan nan nan nan nan
nan nan nan nan nan nan nan nan nan nan nan nan nan nan nan nan nan nan nan nan nan nan nan nan nan nan nan nan nan nan nan nan nan nan nan nan nan nan nan nan nan nan nan nan nan nan nan nan nan nan nan nan nan nan nan nan nan nan nan nan nan nan nan nan nan nan nan nan nan nan nan nan nan nan nan nan nan nan nan nan nan nan nan nan nan
nan nan nan nan nan nan nan nan nan nan nan nan nan nan nan nan nan nan nan nan nan nan nan nan nan nan nan nan nan nan nan nan nan nan nan nan nan nan nan nan nan nan nan nan nan nan nan nan nan nan nan nan nan nan nan nan nan nan nan nan nan nan nan nan nan nan nan nan nan nan nan nan nan nan nan nan nan nan nan nan nan nan nan nan nan
nan nan nan nan nan nan nan nan nan nan nan nan nan nan nan nan nan nan nan nan nan nan nan nan nan nan nan nan nan nan nan nan nan nan nan nan nan nan nan nan nan nan nan nan nan nan nan nan nan nan nan nan nan nan nan nan nan nan nan nan nan nan nan nan nan nan nan nan nan nan nan nan nan nan nan nan nan nan nan nan nan nan nan nan nan
nan nan nan nan nan nan nan nan nan nan nan nan nan nan nan nan nan nan nan nan nan nan nan nan nan nan nan nan nan nan nan nan nan nan nan nan nan nan nan nan nan nan nan nan nan nan nan nan nan nan nan nan nan nan nan nan nan nan nan nan nan nan nan nan nan nan nan nan nan nan nan nan nan nan nan nan nan nan nan nan nan nan nan nan nan
nan nan nan nan nan nan nan nan nan nan nan nan nan nan nan nan nan nan nan nan nan nan nan nan nan nan nan nan nan nan nan nan nan nan nan nan nan nan nan nan nan nan nan nan nan nan nan nan nan nan nan nan nan nan nan nan nan nan nan nan nan nan nan nan nan nan nan nan nan nan nan nan nan nan nan nan nan nan nan nan nan nan nan nan nan
nan nan nan nan nan nan nan nan nan nan nan nan nan nan nan nan nan nan nan nan nan nan nan nan nan nan nan nan nan nan nan nan nan nan nan nan nan nan nan nan nan nan nan nan nan nan nan nan nan nan nan nan nan nan nan nan nan nan nan nan nan nan nan nan nan nan nan nan nan nan nan nan nan nan nan nan nan nan nan nan nan nan nan nan nan
nan nan nan nan nan nan nan nan nan nan nan nan nan nan nan nan nan nan nan nan nan nan nan nan nan nan nan nan nan nan nan nan nan nan nan nan nan nan nan nan nan nan nan nan nan nan nan nan nan nan nan nan nan nan nan nan nan nan nan nan nan nan nan nan nan nan nan nan nan nan nan nan nan nan nan nan nan nan nan nan nan nan nan nan nan
nan nan nan nan nan nan nan nan nan nan nan nan nan nan nan nan nan nan nan nan nan nan nan nan nan nan nan nan nan nan nan nan nan nan nan nan nan nan nan nan nan nan nan nan nan nan nan nan nan nan nan nan nan nan nan nan nan nan nan nan nan nan nan nan nan nan nan nan nan nan nan nan nan nan nan nan nan nan nan nan nan nan nan nan nan